Zurück zum Katalog

OT-FOREST-16 SIWITASGOHT

AktivWissenschaftSSO
NORAD 68998·PAYLOAD·🇺🇸 United States

Gestartet May 3, 2026 von Vandenberg Space Force Base

Loading…

Nächste Überflüge (nächste 24 Stunden)

TLE

AktuellSource: Space-Track

Epoche: Sep 14, 2026, 11:00 UTC

1 68998U 26100U   26257.45843828  .00001228  00000-0  12380-3 0  9993
2 68998  97.7265 153.3018 0004730 104.9181 255.2562 14.92896236 20017

Verfolge OT-FOREST-16 SIWITASGOHT in Echtzeit mit AllMySat

Download on the App Store